Simultaneous Nadir Overpasses (SNOs) Predictions

Prediction of SNOs between FY3D and TERRA Satellite Orbit:

Table of predicted SNOs for the next 14.0 days since TLE Epoch: 2/1/2025
Index Date (FY3D) Time (FY3D) Lat,Lon (FY3D) SZA (FY3D ) Date (TERRA) Time (TERRA) Lat,Lon (TERRA) SZA (TERRA ) Distance(km) Time Diff (sec)
1 02/03/2025 05:00:45 -77.00, -74.92 86.61 02/03/2025 05:01:05 -77.02, -74.83 86.59 3.20 20
2 02/03/2025 05:51:29 76.95, 92.61 93.34 02/03/2025 05:50:25 76.94, 92.53 93.32 2.97 64
3 02/05/2025 15:22:25 77.06, -50.49 92.72 02/05/2025 15:23:27 77.03, -50.44 92.69 3.13 62
4 02/05/2025 16:13:08 -76.98, 117.15 87.37 02/05/2025 16:12:49 -77.01, 117.13 87.35 2.90 19
5 02/08/2025 02:34:48 77.05, 141.52 91.94 02/08/2025 02:35:10 77.02, 141.55 91.91 2.86 22
6 02/08/2025 03:25:31 -76.97, -50.83 88.16 02/08/2025 03:24:32 -77.00, -50.87 88.13 3.65 59
7 02/10/2025 12:56:27 -77.08, 166.01 88.81 02/10/2025 12:57:33 -77.07, 166.08 88.83 2.34 66
8 02/10/2025 13:47:10 77.00, -26.33 91.10 02/10/2025 13:46:52 77.02, -26.41 91.12 3.07 18
9 02/13/2025 00:08:48 -77.04, -1.86 89.67 02/13/2025 00:09:14 -77.03, -2.01 89.68 3.98 26



Historial Predications of SNOs between FY3D and TERRA
